This is the latest recevied weather packets stored in our database for station/object N5ZP. If no packets are shown the sender has not sent any weather packets the latest 10 day(s).
| Time | Temp. | Humidity | Pressure | Rain* | Wind** | Luminosity | Snow |
|---|---|---|---|---|---|---|---|
| 1777945421 | 23.89° C | 70% | 1002.1 hPa | 0 mm | - | 0 W/m² | - |
| 1777945118 | 23.89° C | 70% | 1002.1 hPa | 0 mm | - | 0 W/m² | - |
| 1777944815 | 23.89° C | 70% | 1002.1 hPa | 0 mm | - | 0 W/m² | - |
| 1777944513 | 23.89° C | 70% | 1002.3 hPa | 0 mm | - | 0 W/m² | - |
| 1777944211 | 23.89° C | 70% | 1002.4 hPa | 0 mm | - | 0 W/m² | - |
| 1777943906 | 23.89° C | 69% | 1002.3 hPa | 0 mm | - | 1 W/m² | - |
| 1777943603 | 24.44° C | 68% | 1002.2 hPa | 0 mm | - | 2 W/m² | - |
| 1777943299 | 24.44° C | 68% | 1002.4 hPa | 0 mm | - | 3 W/m² | - |
| 1777942995 | 24.44° C | 68% | 1002.4 hPa | 0 mm | - | 6 W/m² | - |
| 1777942692 | 24.44° C | 67% | 1002.3 hPa | 0 mm | - | 10 W/m² | - |
| 1777942389 | 25° C | 66% | 1002.5 hPa | 0 mm | - | 14 W/m² | - |
| 1777942086 | 25° C | 66% | 1002.5 hPa | 0 mm | - | 18 W/m² | - |
| 1777941782 | 25° C | 65% | 1002.2 hPa | 0 mm | - | 22 W/m² | - |
| 1777941480 | 25° C | 65% | 1002.3 hPa | 0 mm | - | 24 W/m² | - |
| 1777941177 | 25.56° C | 64% | 1002.5 hPa | 0 mm | - | 26 W/m² | - |
| 1777940873 | 25.56° C | 63% | 1002.6 hPa | 0 mm | - | 30 W/m² | - |
| 1777940571 | 25.56° C | 63% | 1002.4 hPa | 0 mm | - | 32 W/m² | - |
| 1777940269 | 25.56° C | 63% | 1002.4 hPa | 0 mm | - | 32 W/m² | - |
| 1777939965 | 26.11° C | 63% | 1002.6 hPa | 0 mm | - | 36 W/m² | - |
| 1777939662 | 26.11° C | 62% | 1002.3 hPa | 0 mm | - | 43 W/m² | - |
| 1777939360 | 26.11° C | 62% | 1002.6 hPa | 0 mm | - | 60 W/m² | - |
| 1777939057 | 26.11° C | 62% | 1002.4 hPa | 0 mm | - | 70 W/m² | - |
| 1777938753 | 26.11° C | 62% | 1002.4 hPa | 0 mm | - | 76 W/m² | - |
| 1777938450 | 26.67° C | 62% | 1002.4 hPa | 0 mm | - | 79 W/m² | - |
| 1777938147 | 26.67° C | 61% | 1002.7 hPa | 0 mm | - | 92 W/m² | - |
* Rain latest hour (hover to see other rain measurements)
** Current wind speed in m/s (hover to see current wind gust speed)